Location: Bad Salzschlirf
(50.3750°N, 9.3000°E)
Time: 05:26:31
(UTC+01:00)

ISS - Pass Details

Date: 22 January 2021
Orbit: 418 x 421 km, 51.6° (Epoch: 23 January)

Event Time Altitude Azimuth Distance (km) Brightness Sun altitude
Rises 18:41:07 0° 233° (SW) 2,362 1.3 -15.9°
Reaches altitude 10° 18:43:15 10° 227° (SW) 1,501 -0.1 -16.3°
Maximum altitude 18:46:29 45° 153° (SSE) 583 -3.2 -16.8°
Enters shadow 18:47:08 39° 118° (ESE) 645 -3.2 -16.9°
